Aérodrome :
LOGIN :

S'inscrire | Disclaimer

   EN    FR    IT 

 










Légende :    VFR   VFR Marginal   IFR   IFR Intensif   IFR Très Intensif
Visi : 
Plafond : 
>= 8 km
>= 3000ft
5 à 8 km
1000 à 3000 ft
1500m à 5 km
500 à 1000 ft
800 à 1500m
200 à 500 ft
< 800m
< 200 ft
Symboles :   Orages  Brouillard  Fortes neiges  Fortes précipitations  Vent > 20 kt
SIGMETs :   Divers  Orages  Givrage  Turbulence  Onde Orograph.  Cendres Volcan.






- Altitude de l'aérodrome : 290 ft
- Code IATA : LAI


LFRO - Lannion

DERNIER METAR :
  • 261530Z AUTO 02006KT 7000 BKN008 BKN013 OVC042 12/10 Q1019

METARs EXPIRÉS :
  • 261500Z AUTO VRB03KT 7000 FEW010 OVC040 12/10 Q1019
  • 261430Z AUTO 05003KT 360V100 8000 OVC038 12/10 Q1019
  • 261400Z AUTO 03004KT 350V120 7000 SCT009 BKN038 12/10 Q1019
  • 261330Z AUTO 02007KT 360V060 6000 FEW008 BKN012 BKN021 12/10 Q1019
  • 261300Z AUTO 07004KT 360V110 9999 FEW011 12/10 Q1020

Prévision TAF périmée.



MET'MAP, la Météo Aéronautique d'un coup d'oeil ! - Copyright ORBIFLY Décembre 2007 - Disclaimer

ORBIFLY MET'MAP TEAM :

Programmation & Développement : Alexandra Zaïnal
Sur une idée originale de : Baudouin d'Aumeries
Assistance à la programmation : Marc-Olivier Méhu
Soutien technique & logistique : Manuel Goepfert

Contact : metmap@orbifly.com




SOURCES & CREDITS :

   NOAA